Tracking 26940 objects as of 28-Jan-2023
HD Live streaming from Space Station
objects crossing your sky now

GEOTAIL

Track GEOTAIL now!
GEOTAIL is classified as:


NORAD ID: 22049
Int'l Code: 1992-044A
Perigee: 58,334.1 km
Apogee: 182,149.1 km
Inclination: 47.5 °
Period: 7,472.7 minutes
Semi major axis: 126612 km
RCS: 3.5 m2 (large)
Launch date: July 24, 1992
Source: Japan (JPN)
Launch site: AIR FORCE EASTERN TEST RANGE (AFETR)

Study the dynamics of the Earth's magnetotail over a wide range of distance
Your satellite tracking list
Your tracking list is empty




NASA's NSSDC Master Catalog

Two Line Element Set (TLE):
1 22049U 92044A   23029.84990994 -.00000803  00000-0  00000-0 0  9996
2 22049  47.5275  33.8320 4889518 211.3318   1.5419  0.19270258 13390
Source of the keplerian elements: AFSPC